Regional Weather Roundup
Issued by NWS

Home | Current Version | Previous Version | Graphics & Text | Print | Product List | Glossary On
Versions: 1 2 3 4 5 6 7 8 9 10 11 12 13 14 15 16 17 18 19 20 21 22 23 24 25 26 27 28 29 30 31 32 33 34 35 36 37 38 39 40 41 42 43 44 45 46 47 48 49 50
000
ASUS45 KCYS 162310
RWRWY

WYOMING REGIONAL WEATHER ROUNDUP
NATIONAL WEATHER SERVICE CHEYENNE WY
500 PM MDT TUE SEP 16 2014

NOTE:  "FAIR" INDICATES FEW OR NO CLOUDS BELOW 12,000 FEET
WITH NO SIGNIFICANT WEATHER AND/OR OBSTRUCTIONS TO VISIBILITY.

WYZ001-170000-
YELLOWSTONE NATIONAL PARK

CITY           SKY/WX    TMP DP  RH WIND       PRES   REMARKS
LK YELLOWSTONE   N/A     67  34  29 VRB5      30.29F
W YELLOWSTONE  NOT AVBL

$$
WYZ002>013-054>058-071-098>099-170000-
NORTHERN WYOMING

CITY           SKY/WX    TMP DP  RH WIND       PRES   REMARKS
JACKSON        PTSUNNY   75  36  23 SW5       30.16F
CODY           CLOUDY    73  46  38 NE7       30.06F
GREYBULL       MOSUNNY   83  36  18 W7        29.97S
WORLAND        MOSUNNY   85  37  18 CALM      29.98F
SHERIDAN       MOSUNNY   82  35  18 S6        29.99S
BUFFALO        MOSUNNY   78  34  20 N8        30.06S
GILLETTE       SUNNY     81  37  20 N13       30.00S
HULETT         FAIR      79  36  21 MISG      30.02
NEWCASTLE      FAIR      82  30  15 MISG      29.98

$$
WYZ014>020-022>026-101>103-170000-
CENTRAL WYOMING

CITY           SKY/WX    TMP DP  RH WIND       PRES   REMARKS
BIG PINEY      SUNNY     76  33  21 NW9       30.21F
PINEDALE       CLEAR     75  32  20 CALM      30.22F
DUBOIS         FAIR      72  32  23 NW14G21   30.19F
LANDER         MOSUNNY   87  32  14 NW15G23   30.07F
RIVERTON       PTSUNNY   82  33  17 NW18      30.09R
CASPER         SUNNY     85  29  13 NW16      30.06F
DOUGLAS        MOSUNNY   85  34  16 W23G32    30.03F

$$
WYZ021-027>030-104>119-170000-
SOUTHERN WYOMING

CITY           SKY/WX    TMP DP  RH WIND       PRES   REMARKS
EVANSTON       PTSUNNY   77  38  24 SW7       30.22F
KEMMERER       MOCLDY    73  34  23 SW13      30.25S
ROCK SPRINGS   MOSUNNY   79  30  16 W10       30.19F
DIXON          FAIR      80  33  18 CALM      30.22F
RAWLINS        PTSUNNY   77  28  16 W13       30.19F
SARATOGA       FAIR      77  32  19 W3        30.23F
LARAMIE        SUNNY     76  31  19 NW10G21   30.22F
CHEYENNE       MOSUNNY   80  28  15 NW10G23   30.15S
TORRINGTON     SUNNY     85  39  19 S6        29.99F
PINE BLUFFS    FAIR      81  32  17 NE8       30.09F

$$



USA.gov is the U.S. government's official web portal to all federal, state and local government web resources and services.